EW4397 Weather Reports


Display with metric or nautical units.
time (UTC)temp
F
wind
direction
speed
MPH
gust
MPH
rain 1hr
in
rain 24hr
in
rain mn
in
humidity
%
barometer
mb
20260506210044 86 118 2.0 9.0 0.00 0.00 0.00 66 1013.1
20260506204553 86 291 1.0 6.0 0.00 0.00 0.00 66 1013.2
20260506203042 87 75 1.0 8.0 0.00 0.00 0.00 64 1013.2
20260506201541 88 123 1.0 7.0 0.00 0.00 0.00 63 1013.3
20260506200042 89 229 2.0 7.0 0.00 0.00 0.00 61 1013.5
20260506194544 89 196 3.0 9.0 0.00 0.00 0.00 61 1013.7
20260506193035 90 198 1.0 7.0 0.00 0.00 0.00 60 1013.7
20260506191533 90 287 2.0 6.0 0.00 0.00 0.00 60 1014.1
20260506190032 91 208 2.0 7.0 0.00 0.00 0.00 58 1014.2
20260506184529 92 210 1.0 5.0 0.00 0.00 0.00 49 1014.3
20260506183027 91 198 1.0 7.0 0.00 0.00 0.00 50 1014.5
20260506181527 90 131 1.0 8.0 0.00 0.00 0.00 52 1014.7
20260506180023 90 204 1.0 6.0 0.00 0.00 0.00 52 1014.8
20260506174521 90 192 2.0 8.0 0.00 0.00 0.00 52 1015.0
20260506173018 89 211 1.0 9.0 0.00 0.00 0.00 54 1015.3
20260506171525 88 211 3.0 9.0 0.00 0.00 0.00 55 1015.5
20260506170013 88 206 3.0 9.0 0.00 0.00 0.00 55 1015.5
20260506164514 87 208 2.0 12.0 0.00 0.00 0.00 57 1015.8
20260506163011 87 213 1.0 4.0 0.00 0.00 0.00 59 1016.2
20260506161510 86 219 1.0 10.0 0.00 0.00 0.00 59 1016.2
20260506160008 86 200 3.0 7.0 0.00 0.00 0.00 60 1016.1
20260506154504 84 198 3.0 8.0 0.00 0.00 0.00 62 1016.3
20260506153001 84 208 1.0 6.0 0.00 0.00 0.00 63 1016.2
20260506151608 83 206 3.0 11.0 0.00 0.00 0.00 63 1016.2
20260506150056 82 210 2.0 6.0 0.00 0.00 0.00 64 1016.1
20260506144602 81 199 2.0 7.0 0.00 0.00 0.00 65 1016.1
20260506143055 80 192 1.0 7.0 0.00 0.00 0.00 67 1016.1
20260506141548 80 210 3.0 8.0 0.00 0.00 0.00 67 1016.0
20260506140056 79 208 3.0 7.0 0.00 0.00 0.00 70 1016.0
20260506134544 77 206 2.0 10.0 0.00 0.00 0.00 74 1016.2
20260506133041 76 212 2.0 6.0 0.00 0.00 0.00 78 1016.1
20260506131537 75 209 4.0 9.0 0.00 0.00 0.00 79 1016.0
20260506130032 73 233 2.0 4.0 0.00 0.00 0.00 82 1016.0
20260506124527 71 213 1.0 6.0 0.00 0.00 0.00 84 1016.0
20260506123024 70 198 1.0 4.0 0.00 0.00 0.00 86 1015.8
20260506121518 68 195 0.0 2.0 0.00 0.00 0.00 90 1015.7
20260506120014 65 274 0.0 1.0 0.00 0.00 0.00 94 1015.5
20260506114516 62 239 0.0 0.0 0.00 0.00 0.00 95 1015.5
20260506113012 60 240 0.0 0.0 0.00 0.00 0.00 94 1015.3
20260506111510 59 241 0.0 0.0 0.00 0.00 0.00 94 1015.2
20260506110009 59 208 0.0 0.0 0.00 0.00 0.00 93 1014.9
20260506104508 59 208 0.0 0.0 0.00 0.00 0.00 93 1014.9
20260506103013 59 208 0.0 0.0 0.00 0.00 0.00 93 1015.0
20260506101506 59 208 0.0 0.0 0.00 0.00 0.00 92 1014.9
20260506100005 59 208 0.0 0.0 0.00 0.00 0.00 93 1014.9
20260506094513 59 208 0.0 0.0 0.00 0.00 0.00 93 1014.8
20260506093004 60 208 0.0 0.0 0.00 0.00 0.00 93 1014.7
20260506091502 60 208 0.0 0.0 0.00 0.00 0.00 92 1014.7
20260506090001 60 208 0.0 0.0 0.00 0.00 0.00 93 1014.5
20260506084605 60 208 0.0 0.0 0.00 0.00 0.00 93 1014.7
20260506083059 60 208 0.0 0.0 0.00 0.00 0.00 93 1014.7
20260506081558 60 208 0.0 0.0 0.00 0.00 0.00 93 1014.6
20260506073103 60 208 0.0 0.0 0.00 0.00 0.00 92 1014.3
20260506071609 60 208 0.0 0.0 0.00 0.00 0.00 92 1014.2
20260506061545 60 208 0.0 0.0 0.00 0.00 0.00 90 1015.1
20260506044535 61 208 0.0 0.0 0.00 0.00 0.00 88 1015.7
20260506043033 61 208 0.0 0.0 0.00 0.00 0.00 87 1015.7
20260506041542 62 208 0.0 0.0 0.00 0.00 0.00 85 1015.6
20260506040030 63 208 0.0 0.0 0.00 0.00 0.00 85 1015.7
20260506034527 63 208 0.0 0.0 0.00 0.00 0.00 84 1015.7
20260506033031 64 208 0.0 0.0 0.00 0.00 0.00 83 1015.8
20260506031528 65 208 0.0 0.0 0.00 0.00 0.00 82 1015.8
20260506030031 65 208 0.0 0.0 0.00 0.00 0.00 82 1015.7
20260506024525 66 208 0.0 0.0 0.00 0.00 0.00 81 1015.6
20260506023025 67 208 0.0 0.0 0.00 0.00 0.00 80 1015.3
20260506021524 67 208 0.0 0.0 0.00 0.00 0.00 79 1015.2
20260506020025 68 208 0.0 0.0 0.00 0.00 0.00 77 1015.1
20260506014533 69 208 0.0 0.0 0.00 0.00 0.00 76 1014.9
20260506013028 70 207 0.0 1.0 0.00 0.00 0.00 74 1014.9
20260506011523 71 207 0.0 2.0 0.00 0.00 0.00 73 1014.9
20260506010027 71 290 0.0 1.0 0.00 0.00 0.00 71 1014.8
20260506004535 72 141 0.0 1.0 0.00 0.00 0.00 71 1014.7
20260506003021 72 227 0.0 1.0 0.00 0.00 0.00 70 1014.6
20260506001521 73 237 0.0 1.0 0.00 0.00 0.00 69 1014.6
20260506000023 73 255 0.0 2.0 0.00 0.00 0.00 69 1014.5
20260505234521 74 258 0.0 5.0 0.00 0.00 0.00 69 1014.6
20260505233019 74 210 1.0 10.0 0.00 0.00 0.00 67 1014.6
20260505231519 75 101 2.0 8.0 0.00 0.00 0.00 67 1014.4
20260505230018 76 102 1.0 6.0 0.00 0.00 0.00 67 1014.4
20260505224531 76 176 1.0 4.0 0.00 0.00 0.00 64 1014.4
20260505223023 76 204 2.0 6.0 0.00 0.00 0.00 65 1014.5
20260505221518 77 194 1.0 6.0 0.00 0.00 0.00 62 1014.4
20260505220027 77 140 1.0 7.0 0.00 0.00 0.00 61 1014.4
20260505214531 78 181 2.0 6.0 0.00 0.00 0.00 60 1014.5
20260505213023 78 98 3.0 8.0 0.00 0.00 0.00 59 1014.5
20260505211516 78 144 0.0 12.0 0.00 0.00 0.00 59 1014.6